Weather History for Rutland, VT

Change the Weather History Date:

Sunday, February 10, 2013

  Actual Average Record
Temperature  
Mean Temperature 11 °F -  
Max Temperature 27 °F - 54 °F (1955)
Min Temperature -6 °F - -20 °F (1979)
Degree Days  
Heating Degree Days 54    
Month to date heating degree days 490  
Since 1 July heating degree days 4215  
Cooling Degree Days 0    
Month to date cooling degree days 0  
Year to date cooling degree days 0  
Moisture  
Dew Point 0 °F    
Average Humidity 67    
Maximum Humidity 100    
Minimum Humidity 33    
Precipitation  
Precipitation 0.00 in - 0.70 in (1969)
Month to date precipitation 0.00  
Year to date precipitation 1.24  
Sea Level Pressure  
Sea Level Pressure 30.35 in    
Wind  
Wind Speed 3 mph (ESE)    
Max Wind Speed 10 mph    
Max Gust Speed -    
Visibility 10 miles    
Events      
T = Trace of Precipitation, MM = Missing Value Source: NWS Daily Summary

Daily Weather History Graph

Daily Weather History Graph

Search for Another Location

Airport:

Trip Planner

Search our weather history database for the weather conditions in past years. The results will help you decide how hot, cold, wet, or windy it might be!

Date:

Astronomy

Feb. 10, 2013 Rise Set
Actual Time 6:56 AM EST 5:15 PM EST
Civil Twilight 6:27 AM EST 5:45 PM EST
Nautical Twilight 5:53 AM EST 6:19 PM EST
Astronomical Twilight 5:20 AM EST 6:52 PM EST
Moon 6:42 AM EST (2/10) 6:06 PM EST (2/10)
Length of Visible Light 11h 18m
Length of Day
10h 19m
New Moon, 0% of the Moon is Illuminated
Feb 10
New Moon
Feb 17
First Quarter
Feb 25
Full
Mar 4
Last Quarter
Mar 11
New

Hourly Weather History & Observations

Time (EST) Temp. Windchill Dew Point Humidity Pressure Visibility Wind Dir Wind Speed Gust Speed Precip Events Conditions
12:15 AM 3.2 °F - -2.2 °F 78% 30.29 in 10.0 mi Calm Calm - N/A   Clear
12:35 AM 3.2 °F - -2.2 °F 78% 30.29 in 10.0 mi Calm Calm - N/A   Clear
12:55 AM 1.4 °F - -7.6 °F 66% 30.30 in 10.0 mi Calm Calm - N/A   Clear
1:15 AM 1.4 °F - -0.4 °F 92% 30.31 in 10.0 mi Calm Calm - N/A   Clear
1:35 AM -0.4 °F - -5.8 °F 78% 30.32 in 10.0 mi Calm Calm - N/A   Clear
1:55 AM 1.4 °F - 1.4 °F 100% 30.32 in 10.0 mi Calm Calm - N/A   Clear
2:15 AM 1.4 °F - -5.8 °F 72% 30.32 in 10.0 mi Calm Calm - N/A   Clear
2:35 AM -0.4 °F - -4.0 °F 85% 30.32 in 10.0 mi Calm Calm - N/A   Clear
2:55 AM -0.4 °F -8.3 °F -4.0 °F 85% 30.32 in 10.0 mi SSE 3.5 mph - N/A   Clear
3:15 AM -2.2 °F - -7.6 °F 78% 30.32 in 10.0 mi Calm Calm - N/A   Clear
3:35 AM -0.4 °F - -2.2 °F 92% 30.32 in 10.0 mi Calm Calm - N/A   Clear
3:55 AM -2.2 °F - -5.8 °F 85% 30.33 in 10.0 mi Calm Calm - N/A   Clear
4:15 AM -2.2 °F -10.4 °F -7.6 °F 78% 30.34 in 10.0 mi ESE 3.5 mph - N/A   Clear
4:35 AM -2.2 °F - -4.0 °F 92% 30.34 in 10.0 mi Calm Calm - N/A   Clear
4:55 AM -4.0 °F -12.4 °F -7.6 °F 85% 30.34 in 10.0 mi SE 3.5 mph - N/A   Clear
5:15 AM -4.0 °F -12.4 °F -5.8 °F 92% 30.35 in 10.0 mi ESE 3.5 mph - N/A   Clear
5:35 AM -2.2 °F -12.5 °F -5.8 °F 85% 30.35 in 10.0 mi SE 4.6 mph - N/A   Clear
5:55 AM -4.0 °F - -7.6 °F 85% 30.36 in 10.0 mi Calm Calm - N/A   Clear
6:15 AM -4.0 °F - -7.6 °F 85% 30.36 in 10.0 mi Calm Calm - N/A   Clear
6:35 AM -5.8 °F - -7.6 °F 92% 30.37 in 10.0 mi Calm Calm - N/A   Clear
6:55 AM -5.8 °F -16.7 °F -5.8 °F 100% 30.37 in 10.0 mi ESE 4.6 mph - N/A   Clear
7:15 AM -5.8 °F - -7.6 °F 92% 30.39 in 10.0 mi Calm Calm - N/A   Clear
7:35 AM -4.0 °F -14.6 °F -4.0 °F 100% 30.40 in 10.0 mi ESE 4.6 mph - N/A   Clear
7:55 AM -4.0 °F - -9.4 °F 78% 30.41 in 10.0 mi Calm Calm - N/A   Clear
8:15 AM -0.4 °F - -0.4 °F 100% 30.42 in 10.0 mi Calm Calm - N/A   Clear
8:35 AM -0.4 °F - -2.2 °F 92% 30.43 in 10.0 mi Calm Calm - N/A   Clear
8:55 AM 3.2 °F - 1.4 °F 92% 30.44 in 10.0 mi Calm Calm - N/A   Clear
9:35 AM 6.8 °F - -2.2 °F 67% 30.45 in 10.0 mi Calm Calm - N/A   Clear
9:55 AM 8.6 °F - -0.4 °F 67% 30.44 in 10.0 mi Calm Calm - N/A   Clear
10:15 AM 10.4 °F - 1.4 °F 67% 30.45 in 10.0 mi Calm Calm - N/A   Clear
10:35 AM 10.4 °F - 1.4 °F 67% 30.45 in 10.0 mi Calm Calm - N/A   Clear
10:55 AM 15.8 °F - 3.2 °F 58% 30.45 in 10.0 mi Calm Calm - N/A   Clear
11:15 AM 17.6 °F - 3.2 °F 53% 30.45 in 10.0 mi Calm Calm - N/A   Clear
11:35 AM 17.6 °F - 3.2 °F 53% 30.44 in 10.0 mi Calm Calm - N/A   Clear
11:55 AM 17.6 °F 12.3 °F -2.2 °F 42% 30.43 in 10.0 mi NNE 3.5 mph - N/A   Clear
12:15 PM 17.6 °F 10.7 °F -0.4 °F 45% 30.41 in 10.0 mi North 4.6 mph - N/A   Clear
12:35 PM 19.4 °F 11.5 °F -0.4 °F 42% 30.41 in 10.0 mi North 5.8 mph - N/A   Clear
1:15 PM 19.4 °F 14.3 °F 1.4 °F 46% 30.38 in 10.0 mi North 3.5 mph - N/A   Clear
1:35 PM 24.8 °F - 1.4 °F 36% 30.37 in 10.0 mi Calm Calm - N/A   Clear
1:55 PM 21.2 °F 16.4 °F 1.4 °F 42% 30.36 in 10.0 mi NE 3.5 mph - N/A   Clear
2:15 PM 26.6 °F - 3.2 °F 37% 30.36 in 10.0 mi Calm Calm - N/A   Clear
2:35 PM 23.0 °F - 1.4 °F 39% 30.35 in 10.0 mi Calm Calm - N/A   Clear
2:55 PM 24.8 °F - 1.4 °F 36% 30.36 in 10.0 mi Calm Calm - N/A   Clear
3:15 PM 24.8 °F 19.1 °F 3.2 °F 40% 30.36 in 10.0 mi NNE 4.6 mph - N/A   Clear
3:35 PM 24.8 °F - 1.4 °F 36% 30.37 in 10.0 mi Calm Calm - N/A   Clear
3:55 PM 26.6 °F 21.2 °F 1.4 °F 34% 30.35 in 10.0 mi NW 4.6 mph - N/A   Clear
4:15 PM 26.6 °F 22.6 °F -0.4 °F 31% 30.34 in 10.0 mi NNW 3.5 mph - N/A   Clear
4:35 PM 26.6 °F 22.6 °F -0.4 °F 31% 30.34 in 10.0 mi NW 3.5 mph - N/A   Clear
4:55 PM 24.8 °F - 1.4 °F 36% 30.33 in 10.0 mi Calm Calm - N/A   Clear
5:15 PM 24.8 °F - 1.4 °F 36% 30.33 in 10.0 mi Calm Calm - N/A   Clear
5:35 PM 23.0 °F - 1.4 °F 39% 30.32 in 10.0 mi Calm Calm - N/A   Clear
5:55 PM 21.2 °F - 6.8 °F 54% 30.32 in 10.0 mi Calm Calm - N/A   Clear
6:15 PM 19.4 °F 12.8 °F 6.8 °F 58% 30.33 in 10.0 mi SE 4.6 mph - N/A   Clear
6:35 PM 19.4 °F 10.4 °F 6.8 °F 58% 30.34 in 10.0 mi SE 6.9 mph - N/A   Clear
6:55 PM 19.4 °F 11.5 °F 6.8 °F 58% 30.32 in 10.0 mi ESE 5.8 mph - N/A   Clear
7:15 PM 17.6 °F 8.2 °F 3.2 °F 53% 30.32 in 10.0 mi ESE 6.9 mph - N/A   Clear
7:35 PM 17.6 °F 9.3 °F 6.8 °F 63% 30.32 in 10.0 mi SE 5.8 mph - N/A   Clear
7:55 PM 17.6 °F 7.3 °F 5.0 °F 58% 30.31 in 10.0 mi SE 8.1 mph - N/A   Clear
8:15 PM 17.6 °F 5.7 °F 6.8 °F 63% 30.30 in 10.0 mi ESE 10.4 mph - N/A   Clear
8:35 PM 17.6 °F 5.0 °F 5.0 °F 58% 30.30 in 10.0 mi SE 11.5 mph - N/A   Clear
8:55 PM 15.8 °F 5.1 °F 6.8 °F 68% 30.30 in 10.0 mi SE 8.1 mph - N/A   Clear
9:15 PM 15.8 °F 2.7 °F 6.8 °F 68% 30.29 in 10.0 mi SE 11.5 mph - N/A   Clear
9:35 PM 14.0 °F 1.2 °F 3.2 °F 62% 30.29 in 10.0 mi SE 10.4 mph - N/A   Clear
9:55 PM 15.8 °F 3.4 °F 5.0 °F 62% 30.28 in 10.0 mi SE 10.4 mph - N/A   Clear
10:15 PM 14.0 °F 1.2 °F 3.2 °F 62% 30.28 in 10.0 mi SE 10.4 mph - N/A   Clear
10:35 PM 15.8 °F 0.9 °F 3.2 °F 58% 30.27 in 10.0 mi SE 15.0 mph - N/A   Clear
10:55 PM 12.2 °F 0.7 °F 3.2 °F 67% 30.27 in 10.0 mi SE 8.1 mph - N/A   Clear
11:15 PM 12.2 °F -1.0 °F 5.0 °F 73% 30.26 in 10.0 mi ESE 10.4 mph - N/A   Mostly Cloudy
11:35 PM 15.8 °F 4.2 °F 5.0 °F 62% 30.25 in 10.0 mi SE 9.2 mph - N/A   Overcast
11:55 PM 15.8 °F 7.2 °F 6.8 °F 68% 30.24 in 10.0 mi SSE 5.8 mph - N/A   Overcast